Starlink 35906

operational
NORAD ID: 67112 Int'l Des: 2025-299 Owner: SPXS Country: US Constellation: starlink
LEOCIRCULAR

关于 Starlink 35906

正在加载描述...

实时位置

正在加载3D地球...

即将过境

高度历史

Altitude vs Time

uPlot chart will show altitude changes over time

两行轨道根数

1 67112C 25299L 25349.45951389 .00311810 00000+0 49239-3 0 3493
2 67112 43.0013 301.3100 0007245 267.2292 119.6294 16.02484818 11
Epoch: Dec 15, 2025 • Age: 103 hours

当前状态

高度 264.8 km
速度 7.75 km/s
星下点 28.46°N, 126.12°W
发射日期 Dec 15, 2025
运行时间 4 days
类型 internet

技术详情

分类 Payload
质量 575.00 kg
干质量 530.00 kg
总质量 575.00 kg
长度 0.30 m
直径 4.10 m
跨度 29.00 m
形状 Box + pan
制造商 SPXS
平台类型 Starlink V2MO
阶段状态 In Orbit
所有者/国家 SPXS/US

大型星座

Loading constellations...